Погода в Усть-Джилинде

Россия / Республика Бурятия     53°39′48″N   111°56′37″E
темп.,
°C
ветер,
м/с
пор.,
м/с
влажн.,
%
обл.,
%
осадки,
мм/ч
давл.,
гПа
погр.,
м
27 января, чт
чт2723:00−29с119861 0.0 104110
02:00−30с119731 0.0 10429
05:00−30с119674 0.0 10429
08:00−31ссв119637 0.0 10439
11:00−23сз01875 0.0 103991
14:00−18юз11795 0.0 1035223
17:00−24ююз01965 0.0 10389
20:00−28с22985 0.0 104210
28 января, пт
пт2823:00−30с11976 0.0 104410
02:00−30ссз11975 0.0 104410
05:00−31с11975 0.0 104410
08:00−31с11975 0.0 10459
11:00−22з11865 0.0 104085
14:00−17зюз11775 0.0 1036210
17:00−23зюз11945 0.0 10379
20:00−28с21975 0.0 104010
29 января, сб
сб2923:00−29ссз11966 0.0 104110
02:00−30ссз11955 0.0 104010
05:00−30ссз11954 0.0 104010
08:00−30ссз11945 0.0 104010
11:00−21зсз11805 0.0 103485
14:00−16зюз12725 0.0 1030212
17:00−22зсз11925 0.0 10329
20:00−27с22955 0.0 103611
30 января, вс
вс3023:00−29ссз21935 0.0 103911
02:00−30ссз11935 0.0 103910
05:00−31ссз11945 0.0 104010
08:00−31с11945 0.0 104110
11:00−22сз11825 0.0 1037105
14:00−17зсз12723 0.0 1033307
17:00−23зсз01924 0.0 10369
20:00−28с22965 0.0 104112
31 января, пн
пн3123:00−31с11955 0.0 104310
02:00−31с11955 0.0 104310
05:00−32с11965 0.0 104310
08:00−32с11965 0.0 10449
11:00−24зсз018629 0.0 103997
14:00−19ююз117719 0.0 1035227
17:00−24ю11945 0.0 10379
20:00−29с22985 0.0 104110